AAL1653 KBOS-KDCA

Flight info

Callsign AAL1653
Flight time 1h 19m
Altitude 32000
Route SSOXS7 SSOXS Q167 ZIZZI DCT KNUKK DCT ATR DCT LAFLN DEALE3
Aircraft B738/M-VGDW/C

Departure

Time 2026-05-07 00:33
Airport Boston Logan International Airport (KBOS)

Arrival

Time 2026-05-07 01:52
Airport Ronald Reagan Washington National Airport (KDCA)
Time Latitude Longitude Altitude Speed Heading
2026-05-06 23:49 42.36837 -71.01468 29 ft 0 kts 248°
2026-05-07 00:23 42.36843 -71.01448 29 ft 3 kts 248°
2026-05-07 00:23 42.36849 -71.01426 29 ft 3 kts 248°
2026-05-07 00:23 42.36856 -71.01404 28 ft 2 kts 248°
2026-05-07 00:23 42.36863 -71.01383 28 ft 2 kts 218°
2026-05-07 00:24 42.36878 -71.01376 28 ft 2 kts 158°
2026-05-07 00:24 42.36879 -71.01376 28 ft 0 kts 157°
2026-05-07 00:25 42.36867 -71.01368 26 ft 3 kts 149°
2026-05-07 00:25 42.36848 -71.01343 29 ft 5 kts 130°
2026-05-07 00:26 42.36838 -71.01301 25 ft 4 kts 86°
2026-05-07 00:26 42.36880 -71.01230 26 ft 14 kts 43°
2026-05-07 00:26 42.36963 -71.01136 27 ft 17 kts 38°
2026-05-07 00:26 42.37079 -71.01050 26 ft 24 kts 26°
2026-05-07 00:27 42.37213 -71.00963 26 ft 10 kts 25°
2026-05-07 00:27 42.37243 -71.00944 28 ft 0 kts 25°
2026-05-07 00:28 42.37244 -71.00943 27 ft 2 kts 25°
2026-05-07 00:28 42.37295 -71.00912 27 ft 14 kts 23°
2026-05-07 00:28 42.37427 -71.00843 24 ft 26 kts 13°
2026-05-07 00:29 42.37612 -71.00757 24 ft 28 kts 20°
2026-05-07 00:29 42.37783 -71.00674 26 ft 14 kts 20°
2026-05-07 00:30 42.37823 -71.00647 24 ft 0 kts 42°
2026-05-07 00:30 42.37824 -71.00646 24 ft 2 kts 44°
2026-05-07 00:30 42.37836 -71.00613 28 ft 6 kts 76°
2026-05-07 00:31 42.37832 -71.00575 24 ft 0 kts 108°
2026-05-07 00:31 42.37830 -71.00566 27 ft 5 kts 108°
2026-05-07 00:31 42.37817 -71.00515 28 ft 6 kts 109°
2026-05-07 00:31 42.37785 -71.00483 27 ft 6 kts 181°
2026-05-07 00:32 42.37754 -71.00493 26 ft 0 kts 199°
2026-05-07 00:32 42.37649 -71.00544 24 ft 47 kts 199°
2026-05-07 00:32 42.37133 -71.00792 27 ft 110 kts 199°
2026-05-07 00:33 42.36253 -71.01214 130 ft 152 kts 199°
2026-05-07 00:33 42.35189 -71.01716 622 ft 172 kts 201°
2026-05-07 00:33 42.33965 -71.02096 1158 ft 190 kts 180°
2026-05-07 00:33 42.32631 -71.01474 1496 ft 220 kts 156°
2026-05-07 00:34 42.31299 -71.00214 1843 ft 245 kts 142°
2026-05-07 00:34 42.30448 -70.98151 2358 ft 269 kts 105°
2026-05-07 00:34 42.30594 -70.95587 2942 ft 286 kts 67°
2026-05-07 00:34 42.31630 -70.93146 3185 ft 311 kts 59°
2026-05-07 00:35 42.32267 -70.90355 3996 ft 307 kts 85°
2026-05-07 00:35 42.32452 -70.87555 5101 ft 297 kts 84°
2026-05-07 00:35 42.32734 -70.84735 5496 ft 315 kts 82°
2026-05-07 00:35 42.33119 -70.81726 5846 ft 330 kts 85°
2026-05-07 00:36 42.32909 -70.78720 6769 ft 314 kts 113°
2026-05-07 00:36 42.32017 -70.76088 7698 ft 298 kts 121°
2026-05-07 00:36 42.31126 -70.73596 8404 ft 301 kts 121°
2026-05-07 00:36 42.30198 -70.70963 8758 ft 314 kts 122°
2026-05-07 00:37 42.28944 -70.68581 9272 ft 308 kts 144°
2026-05-07 00:37 42.27156 -70.67158 9835 ft 292 kts 170°
2026-05-07 00:37 42.25249 -70.66393 10447 ft 291 kts 171°
2026-05-07 00:37 42.23249 -70.65559 10596 ft 310 kts 170°
2026-05-07 00:38 42.21137 -70.64625 10741 ft 327 kts 169°
2026-05-07 00:38 42.18943 -70.63628 10862 ft 342 kts 168°
2026-05-07 00:38 42.16640 -70.62574 10974 ft 357 kts 168°
2026-05-07 00:38 42.14221 -70.61769 11034 ft 358 kts 184°
2026-05-07 00:39 42.11764 -70.62170 11208 ft 355 kts 201°
2026-05-07 00:39 42.09400 -70.63172 11577 ft 356 kts 203°
2026-05-07 00:39 42.07055 -70.64240 11997 ft 356 kts 204°
2026-05-07 00:39 42.04706 -70.65316 12402 ft 357 kts 204°
2026-05-07 00:40 42.02345 -70.66387 12762 ft 359 kts 204°
2026-05-07 00:40 41.99966 -70.67452 13121 ft 360 kts 203°
2026-05-07 00:40 41.97607 -70.68498 13467 ft 361 kts 203°
2026-05-07 00:40 41.95217 -70.69550 13853 ft 360 kts 203°
2026-05-07 00:41 41.92822 -70.70602 14151 ft 362 kts 203°
2026-05-07 00:41 41.90417 -70.71657 14416 ft 364 kts 203°
2026-05-07 00:41 41.88004 -70.72714 14704 ft 365 kts 203°
2026-05-07 00:41 41.85576 -70.73776 14980 ft 366 kts 203°
2026-05-07 00:42 41.83193 -70.74885 15221 ft 365 kts 208°
2026-05-07 00:42 41.80949 -70.76446 15473 ft 363 kts 214°
2026-05-07 00:42 41.78763 -70.78148 15695 ft 364 kts 214°
2026-05-07 00:42 41.76553 -70.79876 15894 ft 367 kts 214°
2026-05-07 00:43 41.74337 -70.81588 16131 ft 368 kts 214°
2026-05-07 00:43 41.72112 -70.83284 16380 ft 368 kts 213°
2026-05-07 00:43 41.69896 -70.84957 16600 ft 370 kts 213°
2026-05-07 00:43 41.67648 -70.86646 16791 ft 371 kts 213°
2026-05-07 00:44 41.65383 -70.88343 17002 ft 373 kts 213°
2026-05-07 00:44 41.63104 -70.90048 17173 ft 375 kts 213°
2026-05-07 00:44 41.60818 -70.91756 17347 ft 376 kts 213°
2026-05-07 00:44 41.58550 -70.93449 17512 ft 378 kts 213°
2026-05-07 00:45 41.56341 -70.95334 17686 ft 375 kts 221°
2026-05-07 00:45 41.54394 -70.97642 17873 ft 374 kts 227°
2026-05-07 00:45 41.52654 -71.00238 18038 ft 374 kts 234°
2026-05-07 00:45 41.51190 -71.03107 18197 ft 374 kts 237°
2026-05-07 00:46 41.50238 -71.05033 18298 ft 374 kts 237°
2026-05-07 00:46 41.48335 -71.08882 18499 ft 375 kts 237°
2026-05-07 00:46 41.46891 -71.11791 18649 ft 375 kts 237°
2026-05-07 00:46 41.45444 -71.14692 18790 ft 376 kts 237°
2026-05-07 00:47 41.44481 -71.16616 18830 ft 376 kts 238°
2026-05-07 00:47 41.42543 -71.20485 18968 ft 378 kts 238°
2026-05-07 00:47 41.41552 -71.22458 19095 ft 377 kts 238°
2026-05-07 00:47 41.40108 -71.25333 19256 ft 377 kts 238°
2026-05-07 00:48 41.38653 -71.28227 19472 ft 374 kts 238°
2026-05-07 00:48 41.37202 -71.31108 19651 ft 374 kts 238°
2026-05-07 00:48 41.35752 -71.33983 19781 ft 374 kts 238°
2026-05-07 00:48 41.34295 -71.36866 19881 ft 375 kts 239°
2026-05-07 00:49 41.32834 -71.39752 20006 ft 375 kts 239°
2026-05-07 00:49 41.31394 -71.42596 20118 ft 376 kts 239°
2026-05-07 00:49 41.29929 -71.45487 20242 ft 376 kts 239°
2026-05-07 00:49 41.28462 -71.48379 20360 ft 376 kts 239°
2026-05-07 00:50 41.26993 -71.51273 20468 ft 376 kts 239°
2026-05-07 00:50 41.25547 -71.54121 20589 ft 376 kts 239°
2026-05-07 00:50 41.24064 -71.57038 20757 ft 375 kts 239°
2026-05-07 00:50 41.22622 -71.59872 20923 ft 374 kts 239°
2026-05-07 00:51 41.21160 -71.62744 21024 ft 374 kts 239°
2026-05-07 00:51 41.19696 -71.65619 21102 ft 375 kts 240°
2026-05-07 00:51 41.18232 -71.68490 21184 ft 375 kts 240°
2026-05-07 00:51 41.16764 -71.71367 21273 ft 375 kts 240°
2026-05-07 00:52 41.15314 -71.74201 21372 ft 375 kts 240°
2026-05-07 00:52 41.13847 -71.77070 21404 ft 376 kts 240°
2026-05-07 00:52 41.12373 -71.79957 21420 ft 378 kts 240°
2026-05-07 00:52 41.10898 -71.82845 21660 ft 373 kts 240°
2026-05-07 00:53 41.09471 -71.85630 22404 ft 357 kts 241°
2026-05-07 00:53 41.08101 -71.88306 23432 ft 343 kts 242°
2026-05-07 00:53 41.06788 -71.90869 24529 ft 328 kts 242°
2026-05-07 00:53 41.05540 -71.93299 25673 ft 311 kts 242°
2026-05-07 00:54 41.04364 -71.95588 26701 ft 297 kts 243°
2026-05-07 00:54 41.03277 -71.97845 27569 ft 285 kts 247°
2026-05-07 00:54 41.02408 -72.00213 28063 ft 285 kts 250°
2026-05-07 00:54 41.01579 -72.02594 28427 ft 289 kts 250°
2026-05-07 00:55 41.00731 -72.05034 28834 ft 292 kts 250°
2026-05-07 00:55 40.99875 -72.07486 29310 ft 292 kts 250°
2026-05-07 00:55 40.99027 -72.09907 29684 ft 294 kts 249°
2026-05-07 00:55 40.98157 -72.12384 29992 ft 298 kts 249°
2026-05-07 00:56 40.97276 -72.14884 30319 ft 300 kts 250°
2026-05-07 00:56 40.96391 -72.17390 30687 ft 300 kts 250°
2026-05-07 00:56 40.95505 -72.19898 31028 ft 302 kts 250°
2026-05-07 00:56 40.94622 -72.22396 31333 ft 303 kts 250°
2026-05-07 00:57 40.93722 -72.24935 31643 ft 305 kts 250°
2026-05-07 00:57 40.92817 -72.27489 31896 ft 309 kts 250°
2026-05-07 00:57 40.91763 -72.30037 31909 ft 323 kts 244°
2026-05-07 00:57 40.90446 -72.32483 31890 ft 337 kts 239°
2026-05-07 00:58 40.88825 -72.34812 31892 ft 351 kts 234°
2026-05-07 00:58 40.87064 -72.37116 31902 ft 360 kts 233°
2026-05-07 00:58 40.83419 -72.41851 31844 ft 371 kts 233°
2026-05-07 00:59 40.79696 -72.46666 31874 ft 384 kts 230°
2026-05-07 00:59 40.77616 -72.48950 31889 ft 391 kts 229°
2026-05-07 01:00 40.73347 -72.53515 31879 ft 395 kts 229°
2026-05-07 01:00 40.69115 -72.58070 31890 ft 394 kts 229°
2026-05-07 01:01 40.64969 -72.62755 31857 ft 389 kts 231°
2026-05-07 01:01 40.60940 -72.67430 31884 ft 387 kts 231°
2026-05-07 01:02 40.56894 -72.72106 31892 ft 387 kts 231°
2026-05-07 01:02 40.52836 -72.76769 31894 ft 387 kts 231°
2026-05-07 01:03 40.48765 -72.81432 31885 ft 388 kts 231°
2026-05-07 01:03 40.44713 -72.86062 31879 ft 388 kts 231°
2026-05-07 01:04 40.40625 -72.90727 31897 ft 389 kts 231°
2026-05-07 01:04 40.36548 -72.95372 31910 ft 390 kts 231°
2026-05-07 01:05 40.32426 -73.00060 31899 ft 392 kts 231°
2026-05-07 01:05 40.28321 -73.04720 31850 ft 392 kts 231°
2026-05-07 01:06 40.24194 -73.09396 31879 ft 392 kts 231°
2026-05-07 01:06 40.20064 -73.14064 31883 ft 392 kts 231°
2026-05-07 01:07 40.15946 -73.18712 31888 ft 393 kts 231°
2026-05-07 01:07 40.11804 -73.23381 31888 ft 393 kts 231°
2026-05-07 01:08 40.07676 -73.28022 31880 ft 394 kts 230°
2026-05-07 01:08 40.03511 -73.32692 31907 ft 394 kts 231°
2026-05-07 01:09 39.99366 -73.37331 31889 ft 394 kts 231°
2026-05-07 01:09 39.95208 -73.41979 31895 ft 393 kts 231°
2026-05-07 01:10 39.91080 -73.46588 31887 ft 391 kts 231°
2026-05-07 01:10 39.86930 -73.51216 31894 ft 391 kts 231°
2026-05-07 01:11 39.82808 -73.55801 31897 ft 392 kts 230°
2026-05-07 01:11 39.78658 -73.60410 31899 ft 392 kts 230°
2026-05-07 01:12 39.74494 -73.65028 31893 ft 392 kts 230°
2026-05-07 01:12 39.70353 -73.69614 31902 ft 392 kts 230°
2026-05-07 01:13 39.66191 -73.74215 31899 ft 391 kts 230°
2026-05-07 01:13 39.62077 -73.78756 31903 ft 390 kts 230°
2026-05-07 01:14 39.57932 -73.83326 31900 ft 391 kts 230°
2026-05-07 01:14 39.53783 -73.87894 31898 ft 392 kts 230°
2026-05-07 01:15 39.49619 -73.92469 31904 ft 392 kts 230°
2026-05-07 01:15 39.45462 -73.97031 31902 ft 392 kts 230°
2026-05-07 01:16 39.41289 -74.01599 31924 ft 392 kts 230°
2026-05-07 01:16 39.37141 -74.06139 31906 ft 391 kts 230°
2026-05-07 01:17 39.32985 -74.10686 31890 ft 390 kts 230°
2026-05-07 01:17 39.28841 -74.15213 31901 ft 389 kts 230°
2026-05-07 01:18 39.24729 -74.19701 31900 ft 389 kts 230°
2026-05-07 01:18 39.20587 -74.24213 31896 ft 389 kts 230°
2026-05-07 01:19 39.16476 -74.28684 31859 ft 389 kts 230°
2026-05-07 01:19 39.12330 -74.33187 31888 ft 390 kts 230°
2026-05-07 01:20 39.08167 -74.37702 31906 ft 392 kts 230°
2026-05-07 01:20 39.03999 -74.42213 31903 ft 394 kts 230°
2026-05-07 01:21 38.99793 -74.46758 31894 ft 395 kts 229°
2026-05-07 01:21 38.95956 -74.51645 31912 ft 380 kts 242°
2026-05-07 01:22 38.93353 -74.57449 31908 ft 376 kts 251°
2026-05-07 01:22 38.91900 -74.63888 31904 ft 375 kts 258°
2026-05-07 01:23 38.90647 -74.70404 31905 ft 376 kts 258°
2026-05-07 01:23 38.89370 -74.76879 31904 ft 375 kts 258°
2026-05-07 01:24 38.88146 -74.83362 31908 ft 372 kts 259°
2026-05-07 01:24 38.87538 -74.86619 31353 ft 377 kts 258°
2026-05-07 01:24 38.86927 -74.89887 30753 ft 373 kts 258°
2026-05-07 01:24 38.86322 -74.93100 30246 ft 368 kts 258°
2026-05-07 01:25 38.85728 -74.96246 29707 ft 364 kts 258°
2026-05-07 01:25 38.85134 -74.99386 29108 ft 359 kts 258°
2026-05-07 01:25 38.84544 -75.02493 28569 ft 354 kts 258°
2026-05-07 01:25 38.83971 -75.05509 28035 ft 350 kts 258°
2026-05-07 01:26 38.83399 -75.08523 27524 ft 345 kts 258°
2026-05-07 01:26 38.82830 -75.11510 27002 ft 342 kts 258°
2026-05-07 01:26 38.82268 -75.14463 26502 ft 338 kts 258°
2026-05-07 01:26 38.81710 -75.17380 26009 ft 335 kts 258°
2026-05-07 01:27 38.81162 -75.20244 25519 ft 333 kts 258°
2026-05-07 01:27 38.80610 -75.23123 24794 ft 336 kts 258°
2026-05-07 01:27 38.80155 -75.26067 24213 ft 335 kts 266°
2026-05-07 01:27 38.80086 -75.29042 23723 ft 333 kts 270°
2026-05-07 01:28 38.80077 -75.32019 23181 ft 331 kts 269°
2026-05-07 01:28 38.80020 -75.34932 22656 ft 328 kts 268°
2026-05-07 01:28 38.79908 -75.37843 22180 ft 325 kts 267°
2026-05-07 01:28 38.79760 -75.40719 21697 ft 322 kts 266°
2026-05-07 01:29 38.79590 -75.43576 21260 ft 318 kts 266°
2026-05-07 01:29 38.79413 -75.46378 20791 ft 316 kts 266°
2026-05-07 01:29 38.79232 -75.49190 20332 ft 315 kts 266°
2026-05-07 01:29 38.79052 -75.51989 19856 ft 315 kts 266°
2026-05-07 01:30 38.78870 -75.54815 19299 ft 319 kts 266°
2026-05-07 01:30 38.78687 -75.57665 18811 ft 329 kts 266°
2026-05-07 01:30 38.78497 -75.60619 18344 ft 332 kts 266°
2026-05-07 01:30 38.78308 -75.63537 17825 ft 331 kts 265°
2026-05-07 01:31 38.78118 -75.66468 17320 ft 327 kts 265°
2026-05-07 01:31 38.77929 -75.69361 16869 ft 323 kts 265°
2026-05-07 01:31 38.77743 -75.72209 16504 ft 318 kts 265°
2026-05-07 01:31 38.77558 -75.75021 16069 ft 315 kts 265°
2026-05-07 01:32 38.77375 -75.77803 15630 ft 312 kts 265°
2026-05-07 01:32 38.77192 -75.80572 15209 ft 310 kts 264°
2026-05-07 01:32 38.77010 -75.83326 14780 ft 309 kts 264°
2026-05-07 01:32 38.76829 -75.86031 14355 ft 307 kts 264°
2026-05-07 01:33 38.76647 -75.88756 13925 ft 306 kts 264°
2026-05-07 01:33 38.76465 -75.91480 13468 ft 306 kts 264°
2026-05-07 01:33 38.76280 -75.94212 13010 ft 308 kts 264°
2026-05-07 01:33 38.76095 -75.96963 12558 ft 310 kts 263°
2026-05-07 01:34 38.75910 -75.99702 12109 ft 314 kts 263°
2026-05-07 01:34 38.75718 -76.02515 11658 ft 316 kts 263°
2026-05-07 01:34 38.75527 -76.05316 11194 ft 314 kts 263°
2026-05-07 01:34 38.75484 -76.08085 11034 ft 306 kts 271°
2026-05-07 01:35 38.75700 -76.10779 10929 ft 304 kts 274°
2026-05-07 01:35 38.75987 -76.13512 10879 ft 313 kts 275°
2026-05-07 01:35 38.76281 -76.16268 10822 ft 316 kts 275°
2026-05-07 01:35 38.76571 -76.19055 10747 ft 314 kts 274°
2026-05-07 01:36 38.76850 -76.21832 10682 ft 313 kts 274°
2026-05-07 01:36 38.77029 -76.23665 10643 ft 313 kts 274°
2026-05-07 01:36 38.77295 -76.26429 10584 ft 312 kts 274°
2026-05-07 01:36 38.77555 -76.29193 10517 ft 312 kts 274°
2026-05-07 01:37 38.77814 -76.31963 10466 ft 312 kts 274°
2026-05-07 01:37 38.78071 -76.34729 10405 ft 312 kts 274°
2026-05-07 01:37 38.78327 -76.37502 10346 ft 312 kts 274°
2026-05-07 01:37 38.78580 -76.40251 10277 ft 306 kts 274°
2026-05-07 01:38 38.78822 -76.42864 10210 ft 292 kts 274°
2026-05-07 01:38 38.79057 -76.45423 10120 ft 286 kts 274°
2026-05-07 01:38 38.79287 -76.47937 10029 ft 279 kts 274°
2026-05-07 01:38 38.79508 -76.50356 9998 ft 266 kts 273°
2026-05-07 01:39 38.79718 -76.52660 9992 ft 253 kts 273°
2026-05-07 01:39 38.79844 -76.54849 9972 ft 240 kts 268°
2026-05-07 01:39 38.79851 -76.56958 9978 ft 234 kts 267°
2026-05-07 01:39 38.79844 -76.59112 9543 ft 248 kts 267°
2026-05-07 01:40 38.79845 -76.61351 9103 ft 253 kts 268°
2026-05-07 01:40 38.79854 -76.63601 8658 ft 257 kts 268°
2026-05-07 01:40 38.79866 -76.65907 8210 ft 260 kts 269°
2026-05-07 01:40 38.79881 -76.68246 7766 ft 263 kts 269°
2026-05-07 01:41 38.79884 -76.70576 7318 ft 258 kts 266°
2026-05-07 01:41 38.79554 -76.72807 6878 ft 253 kts 254°
2026-05-07 01:41 38.79079 -76.74934 6456 ft 250 kts 255°
2026-05-07 01:41 38.78619 -76.77076 6022 ft 247 kts 256°
2026-05-07 01:42 38.78172 -76.79200 5516 ft 247 kts 256°
2026-05-07 01:42 38.77728 -76.81332 5024 ft 246 kts 256°
2026-05-07 01:42 38.77286 -76.83460 4530 ft 246 kts 255°
2026-05-07 01:42 38.76546 -76.85421 4016 ft 248 kts 233°
2026-05-07 01:43 38.75308 -76.86967 3541 ft 250 kts 221°
2026-05-07 01:43 38.73969 -76.88337 3149 ft 247 kts 220°
2026-05-07 01:43 38.72659 -76.89668 3015 ft 232 kts 221°
2026-05-07 01:43 38.71457 -76.90899 3009 ft 210 kts 221°
2026-05-07 01:44 38.70375 -76.92013 2986 ft 188 kts 221°
2026-05-07 01:44 38.69381 -76.93035 2994 ft 180 kts 219°
2026-05-07 01:44 38.68195 -76.93512 3020 ft 184 kts 183°
2026-05-07 01:44 38.67882 -76.93491 3047 ft 185 kts 180°
2026-05-07 01:45 38.67383 -76.93450 3027 ft 188 kts 181°
2026-05-07 01:45 38.66064 -76.93334 2996 ft 189 kts 180°
2026-05-07 01:45 38.64749 -76.93214 2990 ft 189 kts 180°
2026-05-07 01:45 38.63452 -76.93223 2969 ft 183 kts 199°
2026-05-07 01:46 38.62453 -76.94118 2985 ft 176 kts 239°
2026-05-07 01:46 38.62161 -76.95606 3003 ft 175 kts 267°
2026-05-07 01:46 38.62185 -76.97153 2984 ft 178 kts 278°
2026-05-07 01:46 38.62801 -76.98526 2984 ft 185 kts 317°
2026-05-07 01:47 38.63590 -76.99135 3001 ft 187 kts 328°
2026-05-07 01:47 38.64093 -76.99461 2996 ft 188 kts 329°
2026-05-07 01:47 38.65256 -77.00194 2983 ft 187 kts 329°
2026-05-07 01:48 38.66411 -77.00922 2971 ft 183 kts 329°
2026-05-07 01:48 38.67561 -77.01653 2966 ft 185 kts 329°
2026-05-07 01:48 38.68814 -77.02124 2893 ft 194 kts 353°
2026-05-07 01:48 38.70181 -77.02183 2666 ft 192 kts 349°
2026-05-07 01:49 38.71431 -77.02364 2424 ft 174 kts 350°
2026-05-07 01:49 38.72569 -77.02497 2218 ft 158 kts 351°
2026-05-07 01:49 38.73647 -77.02610 2040 ft 151 kts 350°
2026-05-07 01:49 38.74681 -77.02716 1847 ft 149 kts 352°
2026-05-07 01:50 38.75711 -77.02820 1656 ft 149 kts 351°
2026-05-07 01:50 38.76746 -77.02924 1451 ft 149 kts 352°
2026-05-07 01:50 38.77777 -77.03028 1258 ft 148 kts 352°
2026-05-07 01:50 38.78799 -77.03133 1069 ft 147 kts 353°
2026-05-07 01:51 38.79834 -77.03237 880 ft 148 kts 352°
2026-05-07 01:51 38.80861 -77.03342 689 ft 151 kts 355°
2026-05-07 01:51 38.81926 -77.03443 488 ft 155 kts 354°
2026-05-07 01:51 38.83002 -77.03559 292 ft 153 kts 354°
2026-05-07 01:52 38.84054 -77.03665 72 ft 149 kts 354°
2026-05-07 01:52 38.84946 -77.03755 23 ft 83 kts 355°
2026-05-07 01:52 38.85411 -77.03801 24 ft 30 kts 349°
2026-05-07 01:52 38.85525 -77.03888 24 ft 12 kts 313°
2026-05-07 01:53 38.85552 -77.03927 26 ft 0 kts 309°
2026-05-07 01:53 38.85553 -77.03928 26 ft 3 kts 309°
2026-05-07 01:53 38.85557 -77.04014 23 ft 15 kts 251°
2026-05-07 01:54 38.85522 -77.04098 25 ft 9 kts 256°
2026-05-07 01:54 38.85486 -77.04148 24 ft 3 kts 170°
2026-05-07 01:54 38.85475 -77.04145 25 ft 0 kts 168°